Auburn, IN

5:37 PM EDT on May 25, 2017 (GMT -0400)
Auburn

Weather History for KGWB - March, 2014

Change the Weather History Date:

Friday, March 21, 2014

  Actual Average (KFWA) Record (KFWA)
Temperature  
Mean Temperature 39 °F -  
Max Temperature 50 °F 49 °F 87 °F (2012)
Min Temperature 28 °F 30 °F 11 °F (2013)
Degree Days  
Heating Degree Days 26    
Moisture  
Dew Point 32 °F    
Average Humidity 78    
Maximum Humidity 93    
Minimum Humidity 62    
Precipitation  
Precipitation 0.01 in - - ()
Sea Level Pressure  
Sea Level Pressure 29.94 in    
Wind  
Wind Speed 4 mph (East)    
Max Wind Speed 13 mph    
Max Gust Speed 18 mph    
Visibility 8 miles    
Events Snow    
Averages and records for this station are not official NWS values.
T = Trace of Precipitation, MM = Missing Value Source: NWS Daily Summary

Daily Weather History Graph

Daily Weather History Graph

Search for Another Location

Airport or City:

Trip Planner

Search our weather history database for the weather conditions in past years. The results will help you decide how hot, cold, wet, or windy it might be!

Date:

Astronomy

Mar. 21, 2014 Rise Set
Actual Time 7:41 AM EDT 7:53 PM EDT
Civil Twilight 7:14 AM EDT 8:21 PM EDT
Nautical Twilight 6:42 AM EDT 8:53 PM EDT
Astronomical Twilight 6:09 AM EDT 9:26 PM EDT
Moon 12:14 AM EDT (3/21) 10:30 AM EDT (3/21)
Length of Visible Light 13h 06m
Length of Day
12h 11m
Waning Gibbous, 75% of the Moon is Illuminated
Mar 21
Waning Gibbous
Mar 23
Last Quarter
Mar 30
New
Apr 7
First Quarter
Apr 15
Full

Hourly Weather History & Observations

Time (EDT) Temp. Windchill Dew Point Humidity Pressure Visibility Wind Dir Wind Speed Gust Speed Precip Events Conditions
12:15 AM 32.0 °F - 26.6 °F 80% 30.05 in 10.0 mi Calm Calm - N/A   Clear
12:35 AM 32.0 °F - 26.6 °F 80% 30.05 in 10.0 mi Calm Calm - N/A   Clear
12:55 AM 32.0 °F - 26.6 °F 80% 30.04 in 10.0 mi Calm Calm - N/A   Clear
1:15 AM 32.0 °F 28.7 °F 24.8 °F 75% 30.05 in 10.0 mi NE 3.5 mph - N/A   Mostly Cloudy
1:35 AM 32.0 °F - 24.8 °F 75% 30.05 in 10.0 mi Calm Calm - N/A   Scattered Clouds
1:55 AM 30.2 °F - 24.8 °F 80% 30.05 in 10.0 mi Calm Calm - N/A   Scattered Clouds
2:15 AM 30.2 °F - 23.0 °F 75% 30.05 in 10.0 mi Calm Calm - N/A   Scattered Clouds
2:35 AM 28.4 °F - 23.0 °F 80% 30.05 in 10.0 mi Calm Calm - N/A   Scattered Clouds
2:55 AM 30.2 °F - 24.8 °F 80% 30.06 in 10.0 mi Calm Calm - N/A   Clear
3:15 AM 28.4 °F - 23.0 °F 80% 30.06 in 10.0 mi Calm Calm - N/A   Clear
3:35 AM 30.2 °F - 26.6 °F 86% 30.05 in 10.0 mi Calm Calm - N/A   Mostly Cloudy
3:55 AM 30.2 °F - 24.8 °F 80% 30.05 in 10.0 mi Calm Calm - N/A   Overcast
4:15 AM 32.0 °F - 26.6 °F 80% 30.05 in 10.0 mi Calm Calm - N/A   Overcast
4:35 AM 32.0 °F - 26.6 °F 80% 30.05 in 10.0 mi Calm Calm - N/A   Overcast
4:55 AM 32.0 °F - 26.6 °F 80% 30.04 in 10.0 mi Calm Calm - N/A   Overcast
5:15 AM 32.0 °F 27.5 °F 26.6 °F 80% 30.03 in 7.0 mi East 4.6 mph - N/A Snow Light Snow
5:35 AM 32.0 °F - 26.6 °F 80% 30.04 in 4.0 mi Calm Calm - N/A Snow Light Snow
5:55 AM 32.0 °F 28.7 °F 28.4 °F 87% 30.03 in 1.2 mi ESE 3.5 mph - N/A Snow Light Snow
6:15 AM 32.0 °F 28.7 °F 28.4 °F 87% 30.04 in 1.5 mi ESE 3.5 mph - N/A Snow Light Snow
6:35 AM 32.0 °F - 28.4 °F 87% 30.04 in 2.0 mi Calm Calm - N/A Snow Light Snow
6:55 AM 32.0 °F 28.7 °F 28.4 °F 87% 30.04 in 1.8 mi East 3.5 mph - 0.01 in Snow Light Snow
7:15 AM 32.0 °F 27.5 °F 28.4 °F 87% 30.04 in 2.5 mi East 4.6 mph - N/A Snow Light Snow
7:35 AM 32.0 °F 27.5 °F 28.4 °F 87% 30.03 in 3.0 mi East 4.6 mph - N/A Snow Light Snow
7:55 AM 30.2 °F 25.4 °F 28.4 °F 93% 30.04 in 2.5 mi East 4.6 mph - N/A Snow Light Snow
8:15 AM 32.0 °F 27.5 °F 28.4 °F 87% 30.04 in 2.5 mi East 4.6 mph - N/A   Overcast
8:35 AM 32.0 °F 28.7 °F 28.4 °F 87% 30.05 in 3.0 mi East 3.5 mph - N/A   Overcast
8:55 AM 32.0 °F 27.5 °F 30.2 °F 93% 30.05 in 3.0 mi East 4.6 mph - N/A   Overcast
9:15 AM 32.0 °F 27.5 °F 30.2 °F 93% 30.04 in 3.0 mi ESE 4.6 mph - N/A   Overcast
9:35 AM 32.0 °F 26.4 °F 30.2 °F 93% 30.04 in 4.0 mi ENE 5.8 mph - N/A   Mostly Cloudy
9:55 AM 32.0 °F 25.6 °F 30.2 °F 93% 30.05 in 5.0 mi ENE 6.9 mph - N/A   Mostly Cloudy
10:15 AM 32.0 °F 24.8 °F 30.2 °F 93% 30.05 in 5.0 mi East 8.1 mph - N/A   Mostly Cloudy
10:35 AM 33.8 °F 26.4 °F 30.2 °F 87% 30.05 in 7.0 mi East 9.2 mph - N/A   Overcast
10:55 AM 33.8 °F 27.0 °F 30.2 °F 87% 30.04 in 7.0 mi East 8.1 mph - N/A   Mostly Cloudy
11:15 AM 33.8 °F 26.4 °F 30.2 °F 87% 30.03 in 7.0 mi East 9.2 mph - N/A   Mostly Cloudy
11:35 AM 35.6 °F 29.2 °F 30.2 °F 81% 30.02 in 10.0 mi ESE 8.1 mph - N/A   Mostly Cloudy
11:55 AM 37.4 °F 29.3 °F 32.0 °F 81% 30.01 in 10.0 mi East 12.7 mph - N/A   Scattered Clouds
12:15 PM 35.6 °F 28.6 °F 32.0 °F 87% 30.01 in 10.0 mi East 9.2 mph - N/A   Scattered Clouds
12:35 PM 39.2 °F 32.0 °F 32.0 °F 75% 30.00 in 10.0 mi East 11.5 mph - N/A   Mostly Cloudy
12:55 PM 39.2 °F 32.0 °F 32.0 °F 75% 30.00 in 10.0 mi East 11.5 mph 16.1 mph N/A   Scattered Clouds
1:15 PM 39.2 °F 33.0 °F 32.0 °F 75% 30.00 in 10.0 mi ESE 9.2 mph 16.1 mph N/A   Scattered Clouds
1:35 PM 41.0 °F 35.2 °F 32.0 °F 70% 29.99 in 10.0 mi East 9.2 mph - N/A   Scattered Clouds
1:55 PM 41.0 °F 35.2 °F 32.0 °F 70% 29.99 in 10.0 mi East 9.2 mph - N/A   Scattered Clouds
2:15 PM 41.0 °F 38.0 °F 32.0 °F 70% 29.97 in 10.0 mi ESE 4.6 mph - N/A   Clear
2:35 PM 42.8 °F 38.6 °F 33.8 °F 70% 29.96 in 10.0 mi East 6.9 mph - N/A   Scattered Clouds
2:55 PM 42.8 °F 36.6 °F 33.8 °F 70% 29.93 in 10.0 mi East 11.5 mph 16.1 mph N/A   Scattered Clouds
3:15 PM 44.6 °F 39.7 °F 33.8 °F 66% 29.91 in 10.0 mi East 9.2 mph 17.3 mph N/A   Scattered Clouds
3:35 PM 44.6 °F 39.2 °F 35.6 °F 71% 29.91 in 10.0 mi ESE 10.4 mph 18.4 mph N/A   Scattered Clouds
3:55 PM 44.6 °F 40.2 °F 35.6 °F 71% 29.91 in 10.0 mi ESE 8.1 mph - N/A   Clear
4:15 PM 46.4 °F 42.9 °F 35.6 °F 66% 29.90 in 10.0 mi ESE 6.9 mph - N/A   Clear
4:35 PM 46.4 °F 42.4 °F 35.6 °F 66% 29.89 in 10.0 mi ESE 8.1 mph - N/A   Clear
4:55 PM 48.2 °F - 37.4 °F 66% 29.87 in 10.0 mi ESE 8.1 mph - N/A   Clear
5:15 PM 48.2 °F - 37.4 °F 66% 29.85 in 10.0 mi East 10.4 mph - N/A   Clear
5:35 PM 50.0 °F - 37.4 °F 62% 29.84 in 10.0 mi East 10.4 mph - N/A   Clear
5:55 PM 50.0 °F - 37.4 °F 62% 29.83 in 10.0 mi East 9.2 mph - N/A   Clear
6:15 PM 48.2 °F - 37.4 °F 66% 29.83 in 10.0 mi East 6.9 mph - N/A   Clear
6:35 PM 46.4 °F 42.9 °F 37.4 °F 71% 29.82 in 10.0 mi East 6.9 mph - N/A   Clear
6:55 PM 46.4 °F 42.9 °F 37.4 °F 71% 29.82 in 10.0 mi East 6.9 mph - N/A   Clear
7:15 PM 46.4 °F 44.3 °F 37.4 °F 71% 29.81 in 10.0 mi East 4.6 mph - N/A   Clear
7:35 PM 46.4 °F 41.9 °F 37.4 °F 71% 29.80 in 10.0 mi East 9.2 mph - N/A   Scattered Clouds
7:55 PM 44.6 °F 40.7 °F 37.4 °F 76% 29.78 in 10.0 mi East 6.9 mph - N/A   Mostly Cloudy
8:15 PM 44.6 °F 40.2 °F 37.4 °F 76% 29.77 in 10.0 mi East 8.1 mph - N/A   Mostly Cloudy
8:35 PM 44.6 °F 41.4 °F 37.4 °F 76% 29.77 in 10.0 mi East 5.8 mph - N/A   Scattered Clouds
8:55 PM 44.6 °F 40.7 °F 37.4 °F 76% 29.76 in 10.0 mi East 6.9 mph - N/A   Clear
9:15 PM 44.6 °F 40.7 °F 37.4 °F 76% 29.74 in 10.0 mi East 6.9 mph - N/A   Clear
9:35 PM 44.6 °F 40.7 °F 37.4 °F 76% 29.74 in 10.0 mi East 6.9 mph - N/A   Clear
9:55 PM 44.6 °F 41.4 °F 37.4 °F 76% 29.73 in 10.0 mi East 5.8 mph - N/A   Clear
10:15 PM 42.8 °F 40.1 °F 37.4 °F 81% 29.73 in 7.0 mi ESE 4.6 mph - N/A   Clear
10:35 PM 42.8 °F - 37.4 °F 81% 29.71 in 7.0 mi Calm Calm - N/A   Scattered Clouds
10:55 PM 42.8 °F - 37.4 °F 81% 29.70 in 7.0 mi Calm Calm - N/A   Overcast
11:15 PM 42.8 °F - 37.4 °F 81% 29.70 in 7.0 mi Calm Calm - N/A   Overcast
11:35 PM 42.8 °F - 35.6 °F 76% 29.69 in 7.0 mi Calm Calm - N/A   Overcast
11:55 PM 44.6 °F - 37.4 °F 76% 29.68 in 10.0 mi Calm Calm - N/A   Mostly Cloudy